Location: Arbon
(43.0005°N, 0.7472°E)
Time: 04:55:34
(UTC+00:00)

Vanguard 1 - Visible Passes

Search period start: 27 November 2020 00:00
Search period end: 07 December 2020 00:00
Orbit: 650 x 3833 km, 34.2° (Epoch: 26 November)

Date Brightness Start Highest point End Pass type
(mag) Time Alt. Az. Time Alt. Az. Time Alt. Az.
27 Nov 12.4 03:22:56 11° SSE 03:24:22 12° SE 03:26:48 10° ESE visible
27 Nov 11.9 05:36:45 10° SW 05:43:08 42° SSE 05:54:12 10° E visible
28 Nov 12.0 03:43:02 16° SSE 03:44:34 17° SE 03:49:31 10° ESE visible
28 Nov 11.8 05:57:10 10° WSW 06:03:47 47° SSE 06:15:34 10° E visible
29 Nov 11.7 04:03:04 21° S 04:04:53 24° SSE 04:11:17 10° E visible
29 Nov 11.7 06:17:43 10° WSW 06:24:31 50° S 06:36:53 10° ESE visible
30 Nov 11.4 04:23:05 24° S 04:25:18 30° SSE 04:32:46 10° E visible
01 Dec 11.2 04:43:04 25° SSW 04:45:51 36° SSE 04:54:06 10° E visible
02 Dec 12.6 02:50:18 10° ESE 02:50:18 10° ESE 02:50:26 10° ESE visible
02 Dec 11.2 05:03:01 22° SW 05:06:28 41° SSE 05:15:20 10° E visible
03 Dec 12.3 03:10:14 16° ESE 03:10:14 16° ESE 03:12:18 10° ESE visible
03 Dec 11.2 05:22:57 18° SW 05:27:10 44° S 05:36:32 10° ESE visible
04 Dec 11.8 03:30:08 22° SE 03:30:08 22° SE 03:33:43 10° ESE visible
04 Dec 11.3 05:42:51 14° WSW 05:47:55 44° S 05:57:38 10° ESE visible
05 Dec 11.4 03:50:02 28° SE 03:50:02 28° SE 03:54:56 10° ESE visible
05 Dec 11.4 06:02:53 10° WSW 06:08:42 43° S 06:18:40 10° ESE visible
06 Dec 11.0 04:09:54 35° SSE 04:09:54 35° SSE 04:16:03 10° ESE visible
06 Dec 11.7 06:23:37 10° WSW 06:29:32 39° S 06:39:33 10° SE visible
